Wind_Speed
38 38 37 36 36 36 36 36 37 37 37 38 39 39 39 39 40 40 40 41 41 42 42 42 43 43 44 44 45 45 46 46 47 48 48 48 49 48 48 49 49 49 49
39 38 38 37 37 37 37 37 37 38 38 39 40 40 41 41 41 42 42 43 43 44 44 44 44 45 45 45 46 47 47 48 49 50 50 50 49 49 49 49 50 51 51
40 39 39 38 38 38 38 38 39 39 40 40 41 41 41 42 43 43 44 44 44 45 45 46 46 46 46 47 48 49 49 49 50 51 52 52 51 50 50 51 51 51 52
41 40 40 39 40 40 40 40 41 41 41 41 41 42 42 43 43 44 45 45 45 46 47 47 47 48 48 49 49 50 50 51 51 52 53 53 53 52 52 51 51 52 53
42 42 41 41 41 41 41 42 42 42 42 42 43 43 44 44 45 45 46 46 47 47 48 49 49 49 50 50 50 51 51 52 52 53 53 53 54 54 54 53 52 53 54
43 42 42 42 42 42 42 43 43 43 43 44 44 45 45 46 46 46 47 47 47 48 49 49 50 50 50 51 51 52 52 53 53 54 54 54 54 55 56 55 53 53 53
43 43 43 43 43 43 43 44 44 44 44 45 45 46 46 47 47 48 48 48 48 49 48 49 50 50 51 52 52 52 53 54 54 54 54 54 55 56 56 56 55 54 54
42 43 43 44 44 44 44 44 44 44 44 45 45 46 47 48 48 49 50 50 50 50 50 50 50 51 51 52 52 53 54 54 54 54 54 54 54 55 56 56 56 56 54
42 42 43 43 44 44 44 44 44 44 44 45 46 47 47 48 49 50 50 50 50 50 51 50 50 51 52 52 54 54 54 53 53 54 54 54 54 55 55 55 55 55 55
42 42 43 43 43 43 43 43 43 44 44 45 46 47 48 48 49 49 49 50 51 51 51 50 51 51 53 54 54 54 54 54 53 53 53 53 53 53 52 51 52 53 53
41 41 41 42 42 43 43 43 44 44 45 45 46 46 47 47 47 47 48 49 50 50 50 50 51 52 53 53 54 54 54 54 54 54 53 52 51 50 49 49 50 50 51
41 41 41 41 41 42 42 43 43 44 45 45 46 47 46 46 46 46 47 47 48 49 50 50 51 52 53 53 54 54 54 53 53 52 51 50 49 48 48 48 47 48 49
40 40 40 40 39 40 41 42 42 43 43 44 44 44 44 44 45 45 45 45 47 48 49 50 50 52 52 52 52 53 51 50 50 49 48 47 47 46 46 46 47 47 48
40 41 40 39 39 39 40 40 41 41 42 42 43 42 42 43 44 45 45 45 45 46 47 48 50 50 50 50 50 49 48 47 46 45 45 45 45 44 45 45 45 46 46
40 40 40 39 39 40 41 41 41 41 41 41 41 42 42 43 43 44 44 44 45 46 47 47 48 47 48 48 47 45 45 44 43 43 43 44 44 43 43 43 43 44 44
39 39 39 40 40 40 41 41 41 41 41 41 41 42 42 43 43 43 43 43 44 44 45 46 46 46 46 45 44 43 42 42 42 42 42 42 42 42 42 41 42 42 41
38 38 38 39 40 40 40 41 40 40 41 40 41 42 42 42 42 42 42 42 43 43 44 44 44 44 43 42 41 40 40 40 41 40 40 40 40 41 41 39 39 39 38
38 38 38 39 40 40 40 40 39 39 40 40 40 41 41 42 42 42 42 41 41 41 42 42 42 41 40 39 39 40 39 39 39 38 39 38 38 38 38 37 36 36 36
38 39 39 39 39 40 40 39 39 39 40 39 39 40 40 41 41 41 41 41 41 41 40 39 39 38 38 38 39 39 38 37 37 37 37 37 36 36 36 36 36 35 34
37 38 38 39 39 39 39 39 39 39 39 39 39 39 39 40 40 40 40 40 40 40 39 38 37 37 37 37 37 36 36 35 35 35 35 35 35 34 34 34 33 33 32
36 37 37 37 37 38 38 39 40 40 39 38 38 38 39 39 39 38 38 38 38 38 37 36 36 36 36 36 35 34 34 34 33 33 33 33 33 33 33 33 32 31 30
36 36 36 37 37 37 38 38 38 38 37 37 38 38 39 38 37 37 36 36 35 35 35 34 34 35 35 34 34 33 33 33 33 32 32 32 32 32 31 31 31 30 29
37 37 36 36 36 37 37 36 36 36 36 36 37 37 37 36 35 35 33 32 32 33 33 33 33 33 33 33 33 32 32 32 32 31 31 32 32 31 31 30 29 28 27
36 36 36 35 34 35 35 35 35 35 35 35 35 35 35 34 33 32 31 31 31 32 32 32 32 32 31 30 30 31 31 32 31 31 32 31 31 29 28 26 25 25 25
34 35 35 35 35 34 34 34 34 34 33 33 33 33 33 32 31 31 31 30 31 32 32 31 30 29 28 28 29 29 30 30 30 30 29 28 27 25 24 23 22 22 22
32 33 35 35 35 35 34 34 34 33 31 31 31 31 31 30 30 30 30 30 30 30 30 29 28 27 27 27 27 28 28 28 28 28 27 25 24 24 23 22 22 22 21
Wind_Direction
251 252 253 254 255 256 257 257 258 260 262 262 263 264 265 265 266 266 266 266 268 269 270 271 272 274 275 276 276 277 277 278 278 278 278 277 278 277 277 277 277 277 277
250 252 254 255 256 257 258 259 260 261 263 264 264 265 265 265 266 267 267 267 268 270 271 273 274 275 276 276 277 277 278 279 279 279 279 278 277 276 277 277 277 277 277
251 253 254 255 257 258 258 260 260 262 263 265 265 266 266 266 266 267 268 268 269 271 272 273 274 275 276 277 278 278 279 279 279 280 281 280 278 276 276 277 278 278 278
252 254 256 256 257 258 259 260 261 263 264 266 266 266 266 267 267 268 268 269 270 271 272 273 275 276 277 278 278 279 279 280 280 281 281 281 280 278 277 278 279 279 279
253 255 256 258 258 259 260 261 262 264 265 266 266 266 267 267 267 268 268 269 269 271 272 273 275 276 277 278 278 279 279 280 280 281 281 281 280 280 280 280 279 279 279
254 256 257 258 259 260 261 262 263 264 265 266 266 266 267 268 268 269 269 269 271 272 273 274 275 277 278 279 280 280 280 280 281 281 281 281 281 281 281 281 280 279 280
255 256 257 258 260 261 262 263 265 265 265 265 266 266 267 268 268 269 270 269 270 271 272 274 275 277 278 279 280 280 280 281 281 281 281 281 281 281 282 282 281 281 281
255 256 258 259 261 262 264 264 264 264 265 266 267 267 268 268 268 269 270 269 270 272 272 273 275 278 279 280 281 281 281 282 282 282 282 282 282 282 282 282 282 281 281
256 258 259 260 262 263 264 263 263 264 266 267 268 269 269 269 269 270 269 269 271 271 272 274 276 277 278 280 281 281 282 282 281 281 282 283 283 282 282 282 282 282 282
258 259 260 262 263 264 263 263 263 264 265 267 268 269 269 270 270 269 268 269 270 271 272 274 276 277 279 280 281 282 283 282 282 282 282 282 283 283 282 282 283 283 283
258 259 260 261 262 263 263 263 263 265 266 267 268 269 270 270 270 269 268 270 271 271 273 275 276 278 279 281 281 282 282 282 282 282 282 282 282 282 281 282 283 284 284
258 259 260 261 261 262 263 264 264 265 267 268 269 270 270 269 269 268 270 271 271 272 274 275 277 278 280 281 282 283 282 282 282 282 281 281 281 281 281 283 283 283 283
259 259 260 260 261 262 263 264 265 266 267 268 269 269 269 268 268 269 271 272 272 273 274 276 277 278 279 281 282 282 282 282 283 281 280 280 280 281 282 282 282 283 283
258 259 259 259 260 261 263 265 266 267 267 268 268 267 267 268 270 270 271 272 273 274 275 275 277 278 279 281 282 282 281 281 281 281 280 280 281 281 282 282 283 284 284
258 259 260 261 261 262 263 265 266 267 267 267 267 266 268 270 272 272 272 273 273 274 275 276 277 278 279 281 282 282 281 281 281 281 282 280 280 281 282 283 283 284 285
258 259 259 260 261 263 264 265 266 267 267 267 266 267 269 271 272 272 272 273 274 274 275 276 278 279 280 280 280 281 281 281 281 282 282 282 281 281 282 283 283 285 286
258 258 259 260 261 263 264 266 266 267 268 268 267 268 270 272 272 271 272 273 273 274 275 277 278 279 279 279 280 280 280 281 282 283 283 283 282 282 282 283 284 285 285
258 259 260 260 261 263 264 266 266 266 266 266 267 268 270 271 271 271 272 272 273 275 277 277 277 278 278 279 280 281 281 282 283 284 284 285 285 284 283 284 284 284 284
258 259 260 260 261 262 264 265 266 266 266 267 268 269 270 271 272 272 272 272 273 275 276 276 276 276 277 279 280 281 281 282 283 284 284 284 285 285 284 283 283 282 283
258 259 260 260 261 262 264 265 265 266 267 267 269 270 271 272 272 272 272 271 273 274 275 276 276 277 278 279 280 280 281 282 283 284 284 284 284 284 284 283 282 281 280
259 260 260 260 261 262 263 264 265 266 267 267 268 269 271 272 271 271 272 272 272 273 274 274 275 276 278 279 279 280 281 282 283 284 284 284 284 284 283 284 282 282 280
260 261 262 261 261 262 263 264 265 266 266 266 267 269 271 272 271 271 271 271 271 272 273 273 274 276 278 278 279 280 281 283 284 284 284 285 284 284 283 283 282 281 280
260 260 260 262 262 263 263 264 265 266 266 267 269 270 271 272 271 271 270 269 271 272 272 273 275 276 277 279 280 280 281 282 283 284 285 285 284 283 283 282 281 279 278
260 260 260 261 262 263 263 264 265 266 267 268 268 269 270 270 269 268 268 270 271 272 273 274 276 277 277 279 280 280 280 281 282 282 284 285 283 282 282 280 278 279 280
260 260 260 260 261 263 263 264 265 265 266 267 268 269 270 268 266 266 268 270 273 275 276 276 277 276 277 279 280 281 281 282 282 282 282 282 281 280 280 280 280 280 282
259 260 260 261 262 263 263 264 264 264 266 267 268 268 268 267 267 266 268 271 274 275 276 276 277 278 279 280 281 283 284 283 282 281 281 280 280 280 279 278 279 280 281
Height
5727 5729 5731 5733 5735 5737 5739 5740 5742 5743 5744 5745 5746 5747 5749 5750 5751 5751 5752 5753 5753 5754 5755 5755 5755 5755 5755 5754 5754 5753 5753 5752 5751 5750 5750 5750 5749 5747 5747 5745 5744 5744 5742
5718 5720 5723 5725 5727 5729 5730 5732 5733 5735 5736 5736 5737 5738 5739 5740 5741 5742 5743 5743 5744 5744 5745 5745 5745 5744 5744 5743 5743 5742 5741 5740 5738 5737 5736 5737 5738 5736 5734 5733 5732 5731 5729
5709 5712 5714 5716 5718 5720 5722 5723 5724 5725 5726 5727 5728 5728 5729 5730 5731 5731 5732 5733 5733 5734 5734 5734 5734 5733 5733 5732 5731 5730 5729 5728 5727 5724 5722 5721 5722 5722 5722 5720 5719 5717 5716
5700 5702 5705 5707 5709 5711 5712 5713 5714 5715 5716 5717 5718 5718 5719 5720 5720 5721 5722 5722 5723 5723 5723 5722 5722 5722 5721 5720 5719 5718 5716 5715 5714 5712 5709 5708 5706 5706 5707 5708 5706 5704 5702
5690 5693 5695 5697 5699 5701 5702 5703 5704 5705 5706 5706 5707 5708 5708 5709 5709 5710 5710 5711 5711 5711 5711 5711 5711 5710 5709 5708 5707 5705 5704 5702 5700 5699 5696 5694 5693 5691 5690 5692 5693 5691 5688
5680 5682 5685 5687 5688 5690 5691 5692 5693 5694 5694 5695 5695 5696 5697 5697 5698 5698 5699 5699 5699 5699 5699 5699 5698 5698 5697 5695 5693 5692 5690 5688 5687 5685 5683 5681 5679 5678 5675 5675 5676 5676 5675
5670 5672 5674 5676 5678 5679 5680 5680 5681 5681 5682 5683 5683 5684 5685 5685 5686 5686 5686 5687 5687 5687 5686 5686 5686 5685 5684 5682 5680 5679 5677 5675 5673 5671 5669 5667 5665 5663 5661 5659 5659 5659 5660
5659 5661 5663 5665 5667 5667 5668 5668 5668 5669 5670 5671 5671 5672 5672 5672 5673 5673 5673 5674 5674 5674 5674 5673 5673 5672 5671 5669 5667 5665 5663 5661 5659 5657 5655 5653 5651 5649 5646 5644 5642 5642 5644
5649 5651 5652 5654 5655 5655 5655 5656 5657 5658 5659 5659 5659 5659 5660 5660 5660 5660 5660 5661 5661 5662 5661 5661 5660 5659 5658 5656 5654 5652 5650 5647 5645 5643 5641 5639 5637 5635 5632 5629 5627 5625 5625
5638 5640 5642 5643 5643 5644 5644 5645 5646 5646 5647 5647 5647 5647 5647 5647 5647 5647 5648 5648 5649 5648 5648 5648 5647 5646 5644 5642 5640 5638 5636 5634 5632 5629 5627 5625 5623 5621 5618 5616 5613 5611 5609
5628 5629 5631 5632 5632 5633 5633 5634 5635 5635 5635 5635 5635 5635 5634 5634 5634 5635 5635 5635 5635 5635 5635 5635 5634 5633 5631 5629 5626 5624 5622 5620 5618 5616 5613 5612 5609 5607 5605 5603 5601 5598 5596
5618 5619 5620 5621 5622 5622 5622 5623 5623 5624 5624 5624 5624 5623 5623 5622 5623 5623 5623 5623 5623 5623 5622 5622 5621 5619 5618 5615 5613 5610 5608 5606 5604 5602 5600 5598 5596 5595 5593 5591 5589 5586 5584
5607 5609 5610 5611 5612 5612 5612 5613 5613 5613 5613 5612 5612 5612 5612 5612 5612 5612 5611 5611 5611 5611 5610 5609 5608 5606 5604 5602 5599 5597 5594 5592 5590 5588 5587 5585 5584 5582 5581 5579 5577 5575 5572
5596 5598 5600 5601 5602 5602 5603 5602 5603 5602 5602 5602 5602 5602 5602 5602 5601 5601 5601 5600 5600 5599 5598 5596 5595 5593 5591 5589 5586 5583 5581 5579 5577 5576 5574 5573 5572 5571 5569 5567 5566 5564 5561
5586 5588 5589 5590 5591 5592 5592 5593 5593 5593 5593 5592 5592 5592 5592 5591 5591 5590 5590 5589 5588 5587 5586 5584 5582 5581 5579 5576 5574 5572 5569 5567 5566 5565 5563 5562 5560 5559 5557 5556 5554 5552 5550
5575 5577 5578 5579 5580 5581 5582 5582 5582 5583 5583 5583 5582 5582 5582 5581 5581 5580 5579 5578 5577 5575 5574 5572 5571 5569 5567 5564 5562 5560 5558 5557 5555 5554 5552 5551 5549 5548 5547 5545 5543 5541 5538
5564 5566 5567 5569 5570 5571 5571 5572 5572 5572 5572 5572 5572 5572 5571 5571 5570 5569 5568 5567 5566 5564 5563 5561 5560 5558 5556 5554 5552 5550 5548 5547 5545 5544 5542 5540 5539 5537 5536 5535 5533 5531 5529
5554 5555 5556 5558 5559 5560 5560 5561 5561 5562 5562 5562 5561 5561 5561 5560 5559 5558 5557 5556 5555 5554 5552 5551 5549 5547 5546 5544 5542 5540 5538 5537 5535 5533 5532 5530 5529 5527 5526 5525 5524 5522 5521
5543 5544 5545 5547 5548 5549 5549 5550 5550 5551 5551 5551 5551 5551 5550 5549 5548 5547 5546 5545 5544 5544 5542 5540 5539 5538 5537 5534 5532 5530 5529 5528 5526 5524 5522 5521 5519 5518 5516 5515 5514 5514 5513
5532 5534 5535 5536 5537 5538 5539 5539 5540 5540 5540 5540 5540 5540 5539 5538 5538 5537 5536 5535 5534 5533 5532 5531 5530 5528 5527 5525 5523 5521 5520 5519 5518 5516 5514 5512 5510 5509 5507 5506 5505 5505 5504
5523 5524 5525 5526 5526 5527 5528 5528 5529 5530 5530 5530 5530 5529 5529 5528 5527 5526 5525 5524 5523 5523 5522 5521 5520 5519 5517 5516 5514 5512 5511 5510 5509 5508 5506 5504 5502 5500 5499 5497 5496 5495 5495
5513 5514 5515 5515 5516 5517 5517 5518 5518 5519 5519 5519 5519 5519 5518 5517 5516 5516 5515 5514 5513 5513 5512 5512 5511 5510 5508 5507 5505 5504 5502 5501 5500 5499 5497 5496 5494 5492 5490 5489 5488 5487 5486
5503 5504 5505 5506 5506 5506 5507 5507 5508 5508 5509 5509 5509 5509 5508 5508 5507 5506 5505 5505 5504 5503 5503 5502 5502 5501 5500 5498 5497 5495 5494 5492 5491 5490 5489 5487 5485 5484 5482 5481 5480 5479 5478
5492 5493 5494 5496 5496 5497 5497 5498 5498 5499 5499 5499 5499 5499 5499 5498 5498 5497 5496 5496 5495 5495 5494 5493 5493 5492 5491 5489 5488 5486 5485 5484 5483 5481 5480 5479 5477 5476 5475 5474 5473 5472 5471
5483 5484 5485 5486 5487 5487 5488 5488 5489 5489 5489 5490 5490 5489 5489 5489 5489 5488 5488 5487 5487 5486 5485 5485 5484 5483 5482 5481 5479 5478 5477 5476 5474 5473 5472 5471 5470 5469 5468 5467 5466 5466 5465
5473 5474 5475 5476 5477 5478 5478 5479 5479 5480 5480 5480 5481 5481 5480 5480 5480 5480 5480 5479 5478 5478 5476 5476 5475 5474 5474 5473 5471 5470 5469 5467 5466 5465 5464 5463 5463 5462 5462 5461 5461 5460 5459